• In Belarus
  • List of Countries
  • For 7 days
  • Water Temperature
  • Satellite Maps
  • Weather Map
  • Weather Widgets
  • user-avatar
    Login

    Hourly Weather Altaj

    Today, 22 March, Friday

    Time Temperature Precipitation Wind Pressure Humidity
    00:00 -16°C° 0 mm 1 mps 565 mmHg 63%
    01:00 -16°C° 0 mm 1 mps 565 mmHg 63%
    02:00 -16°C° 0 mm 1 mps 565 mmHg 62%
    03:00 -16°C° 0 mm 1 mps 565 mmHg 61%
    04:00 -16°C° 0 mm 1 mps 566 mmHg 60%
    05:00 -16°C° 0 mm 1 mps 566 mmHg 59%
    06:00 -16°C° 0 mm 1 mps 566 mmHg 58%
    07:00 -14°C° 0 mm 1 mps 567 mmHg 55%
    08:00 -12°C° 0 mm 1 mps 567 mmHg 51%
    09:00 -11°C° 0 mm 1 mps 568 mmHg 48%
    10:00 -10°C° 0 mm 1 mps 568 mmHg 46%
    11:00 -9°C° 0 mm 1 mps 568 mmHg 44%
    12:00 -9°C° 0 mm 2 mps 568 mmHg 42%
    13:00 -8°C° 0 mm 1 mps 568 mmHg 44%
    14:00 -7°C° 0 mm 1 mps 568 mmHg 45%
    15:00 -7°C° 0 mm 1 mps 568 mmHg 47%
    16:00 -8°C° 0 mm 1 mps 567 mmHg 48%
    17:00 -10°C° 0 mm 1 mps 566 mmHg 49%
    18:00 -11°C° 0 mm 1 mps 566 mmHg 50%
    19:00 -11°C° 0 mm 1 mps 566 mmHg 49%
    20:00 -11°C° 0 mm 1 mps 566 mmHg 47%
    21:00 -12°C° 0 mm 1 mps 566 mmHg 46%
    22:00 -12°C° 0 mm 1 mps 566 mmHg 44%
    23:00 -12°C° 0 mm 1 mps 566 mmHg 42%

    Tomorrow, 23 March, Saturday

    Time Temperature Precipitation Wind Pressure Humidity
    00:00 -12°C° 0 mm 1 mps 566 mmHg 40%
    01:00 -12°C° 0 mm 1 mps 565 mmHg 38%
    02:00 -13°C° 0 mm 1 mps 565 mmHg 36%
    03:00 -13°C° 0 mm 1 mps 565 mmHg 34%
    04:00 -13°C° 0 mm 1 mps 565 mmHg 32%
    05:00 -13°C° 0 mm 1 mps 565 mmHg 31%
    06:00 -13°C° 0 mm 1 mps 565 mmHg 30%
    07:00 -11°C° 0 mm 1 mps 566 mmHg 31%
    08:00 -9°C° 0 mm 1 mps 567 mmHg 33%
    09:00 -7°C° 0 mm 1 mps 567 mmHg 34%
    10:00 -7°C° 0 mm 1 mps 567 mmHg 34%
    11:00 -6°C° 0 mm 1 mps 567 mmHg 34%
    12:00 -4°C° 0 mm 1 mps 567 mmHg 33%
    13:00 -4°C° 0 mm 1 mps 567 mmHg 34%
    14:00 -4°C° 0 mm 1 mps 566 mmHg 35%
    15:00 -3°C° 0 mm 1 mps 566 mmHg 36%
    16:00 -6°C° 0 mm 1 mps 565 mmHg 35%
    17:00 -7°C° 0 mm 1 mps 564 mmHg 34%
    18:00 -9°C° 0 mm 1 mps 563 mmHg 34%
    19:00 -9°C° 0 mm 1 mps 563 mmHg 32%
    20:00 -10°C° 0 mm 1 mps 563 mmHg 30%
    21:00 -10°C° 0 mm 1 mps 563 mmHg 28%
    22:00 -10°C° 0 mm 1 mps 563 mmHg 27%
    23:00 -10°C° 0 mm 1 mps 563 mmHg 27%

    Day after tomorrow, 24 March, Sunday

    Time Temperature Precipitation Wind Pressure Humidity
    00:00 -11°C° 0 mm 1 mps 562 mmHg 26%
    01:00 -11°C° 0 mm 1 mps 562 mmHg 26%
    02:00 -11°C° 0 mm 1 mps 562 mmHg 26%
    03:00 -11°C° 0 mm 1 mps 561 mmHg 26%
    04:00 -12°C° 0 mm 1 mps 561 mmHg 26%
    05:00 -12°C° 0 mm 1 mps 561 mmHg 26%
    06:00 -12°C° 0 mm 1 mps 561 mmHg 26%
    07:00 -10°C° 0 mm 1 mps 562 mmHg 28%
    08:00 -8°C° 0 mm 0 mps 563 mmHg 30%
    09:00 -7°C° 0 mm 0 mps 564 mmHg 32%
    10:00 -6°C° 0 mm 1 mps 564 mmHg 31%
    11:00 -4°C° 0 mm 1 mps 564 mmHg 30%
    12:00 -3°C° 0 mm 1 mps 564 mmHg 29%
    13:00 -3°C° 0 mm 1 mps 563 mmHg 31%
    14:00 -3°C° 0 mm 1 mps 563 mmHg 33%
    15:00 -3°C° 0 mm 1 mps 563 mmHg 35%
    16:00 -6°C° 0 mm 1 mps 562 mmHg 36%
    17:00 -8°C° 0 mm 1 mps 562 mmHg 36%
    18:00 -9°C° 0 mm 1 mps 561 mmHg 37%
    19:00 -9°C° 0 mm 1 mps 561 mmHg 36%
    20:00 -10°C° 0 mm 1 mps 561 mmHg 35%
    21:00 -10°C° 0 mm 1 mps 561 mmHg 34%
    22:00 -10°C° 0 mm 1 mps 561 mmHg 33%
    23:00 -10°C° 0 mm 1 mps 561 mmHg 32%

    25 March, Monday

    Time Temperature Precipitation Wind Pressure Humidity
    00:00 -10°C° 0 mm 1 mps 561 mmHg 31%
    01:00 -11°C° 0 mm 1 mps 560 mmHg 29%
    02:00 -11°C° 0 mm 1 mps 560 mmHg 28%
    03:00 -11°C° 0 mm 1 mps 560 mmHg 27%
    04:00 -11°C° 0 mm 1 mps 560 mmHg 25%
    05:00 -10°C° 0 mm 1 mps 560 mmHg 23%
    06:00 -10°C° 0 mm 1 mps 560 mmHg 22%
    07:00 -9°C° 0 mm 1 mps 561 mmHg 24%
    08:00 -7°C° 0 mm 1 mps 562 mmHg 27%
    09:00 -4°C° 0 mm 1 mps 563 mmHg 29%
    10:00 -6°C° 0 mm 2 mps 563 mmHg 28%
    11:00 -5°C° 0 mm 2 mps 563 mmHg 27%
    12:00 -6°C° 0 mm 3 mps 563 mmHg 26%
    13:00 -5°C° 0 mm 2 mps 562 mmHg 29%
    14:00 -5°C° 0 mm 2 mps 562 mmHg 32%
    15:00 -5°C° 0 mm 2 mps 562 mmHg 35%
    16:00 -7°C° 0 mm 2 mps 561 mmHg 36%
    17:00 -7°C° 0 mm 1 mps 561 mmHg 37%
    18:00 -8°C° 0 mm 1 mps 560 mmHg 38%
    19:00 -8°C° 0 mm 1 mps 561 mmHg 37%
    20:00 -8°C° 0 mm 1 mps 561 mmHg 36%
    21:00 -9°C° 0 mm 1 mps 561 mmHg 35%
    22:00 -9°C° 0 mm 1 mps 561 mmHg 36%
    23:00 -9°C° 0 mm 1 mps 561 mmHg 36%

    26 March, Tuesday

    Time Temperature Precipitation Wind Pressure Humidity
    00:00 -9°C° 0 mm 1 mps 561 mmHg 36%
    01:00 -9°C° 0 mm 1 mps 561 mmHg 37%
    02:00 -9°C° 0 mm 1 mps 561 mmHg 38%
    03:00 -9°C° 0 mm 1 mps 561 mmHg 39%
    04:00 -9°C° 0 mm 1 mps 561 mmHg 40%
    05:00 -10°C° 0 mm 1 mps 561 mmHg 41%
    06:00 -10°C° 0 mm 1 mps 561 mmHg 42%
    07:00 -9°C° 0 mm 1 mps 562 mmHg 41%
    08:00 -8°C° 0 mm 1 mps 563 mmHg 40%
    09:00 -6°C° 0 mm 1 mps 564 mmHg 39%
    10:00 -7°C° 0 mm 2 mps 564 mmHg 39%
    11:00 -6°C° 0 mm 2 mps 564 mmHg 39%
    12:00 -6°C° 0 mm 2 mps 564 mmHg 38%
    13:00 -6°C° 0 mm 2 mps 564 mmHg 40%
    14:00 -6°C° 0 mm 2 mps 564 mmHg 41%
    15:00 -6°C° 0 mm 2 mps 564 mmHg 43%
    16:00 -7°C° 0 mm 2 mps 563 mmHg 46%
    17:00 -7°C° 0 mm 1 mps 563 mmHg 48%
    18:00 -8°C° 0 mm 1 mps 563 mmHg 51%
    19:00 -8°C° 0 mm 1 mps 563 mmHg 53%
    20:00 -8°C° 0 mm 1 mps 564 mmHg 55%
    21:00 -8°C° 0 mm 1 mps 564 mmHg 57%
    22:00 -9°C° 0.1 mm 1 mps 564 mmHg 59%
    23:00 -9°C° 0.1 mm 1 mps 564 mmHg 62%

    27 March, Wednesday

    Time Temperature Precipitation Wind Pressure Humidity
    00:00 -9°C° 0.1 mm 1 mps 564 mmHg 64%
    01:00 -9°C° 0.1 mm 1 mps 565 mmHg 65%
    02:00 -10°C° 0.1 mm 1 mps 565 mmHg 65%
    03:00 -10°C° 0.1 mm 1 mps 565 mmHg 66%
    04:00 -10°C° 0.1 mm 1 mps 565 mmHg 68%
    05:00 -10°C° 0.1 mm 1 mps 565 mmHg 70%
    06:00 -11°C° 0.1 mm 1 mps 565 mmHg 72%
    07:00 -10°C° 0.1 mm 1 mps 565 mmHg 72%
    08:00 -10°C° 0.1 mm 1 mps 566 mmHg 72%
    09:00 -9°C° 0.1 mm 1 mps 566 mmHg 72%
    10:00 -9°C° 0.1 mm 1 mps 566 mmHg 70%
    11:00 -9°C° 0.1 mm 2 mps 566 mmHg 67%
    12:00 -9°C° 0.1 mm 2 mps 566 mmHg 65%
    13:00 -9°C° 0.2 mm 2 mps 566 mmHg 65%
    14:00 -7°C° 0.2 mm 1 mps 566 mmHg 65%
    15:00 -7°C° 0.2 mm 1 mps 566 mmHg 65%
    16:00 -8°C° 0.2 mm 1 mps 566 mmHg 67%
    17:00 -8°C° 0.2 mm 1 mps 566 mmHg 68%
    18:00 -9°C° 0.2 mm 1 mps 566 mmHg 70%
    19:00 -9°C° 0.1 mm 1 mps 567 mmHg 68%
    20:00 -9°C° 0.1 mm 1 mps 567 mmHg 67%
    21:00 -10°C° 0.1 mm 1 mps 567 mmHg 65%
    22:00 -10°C° 0 mm 1 mps 568 mmHg 64%
    23:00 -11°C° 0 mm 1 mps 568 mmHg 62%
    Show more